Regional Weather Roundup
Issued by NWS

Home | Current Version | Previous Version | Text Only | Print | Product List | Glossary Off
Versions: 1 2 3 4 5 6 7 8 9 10 11 12 13 14 15 16 17 18 19 20 21 22 23 24 25 26 27 28 29 30 31 32 33 34 35 36 37 38 39 40 41 42 43 44 45 46 47 48 49 50

000
ASUS45 KBOU 061710
RWRCO

WEATHER ROUNDUP FOR COLORADO
NATIONAL WEATHER SERVICE DENVER/BOULDER CO
1100 AM MDT MON JUL 06 2015

NOTE: "FAIR" INDICATES FEW OR NO CLOUDS BELOW 12000 FEET WITH NO
SIGNIFICANT WEATHER AND/OR OBSTRUCTIONS TO VISIBILITY.

COZ001>005-013-030-031-061800-
...NORTHWEST COLORADO...

CITY           SKY/WX    TMP DP  RH WIND       PRES   REMARKS
CRAIG          SUNNY     69  55  60 VRB5      30.28F
HAYDEN         MOSUNNY   64  52  63 W3        30.30S
MEEKER         MOSUNNY   67  59  75 VRB5      30.28F
MOUNT WERNER   NOT AVBL
STEAMBOAT SPGS SUNNY     64  53  68 CALM      30.31F
WALDEN         CLOUDY    54  50  87 NW5       30.39R
$$

COZ006>008-011-061800-
...WEST CENTRAL VALLEYS...

CITY           SKY/WX    TMP DP  RH WIND       PRES   REMARKS
GRAND JUNCTION MOSUNNY   77  57  50 E6        30.17S
MONTROSE       MOSUNNY   76  52  43 NW5       30.24F
EAGLE          PTSUNNY   68  54  60 CALM      30.30F
RIFLE          LGT RAIN  64  56  75 W13       30.24F
DELTA          MOSUNNY   77  56  49 E3        30.20F
NUCLA          NOT AVBL
$$

COZ017>023-064>068-061800-
...SOUTHWEST COLORADO...

CITY           SKY/WX    TMP DP  RH WIND       PRES   REMARKS
DURANGO        PTSUNNY   72  52  49 CALM      30.25S
CORTEZ         SUNNY     80  52  37 NW7       30.21S
PAGOSA SPRINGS PTSUNNY   71  49  46 CALM      30.32S
TELLURIDE      MOSUNNY   66  50  55 W9        30.44F
WOLF CREEK PAS NOT AVBL
$$

COZ009-010-012-014-032>034-037-058>063-061800-
...CENTRAL COLORADO...

CITY           SKY/WX    TMP DP  RH WIND       PRES   REMARKS
ASPEN          PTSUNNY   66  52  60 VRB6      30.35S
BUENA VISTA    PTSUNNY   72  46  39 SE6       30.33S
COPPER MTN     PTSUNNY   52  43  71 W17       30.62S
BERTHOUD PASS  HAZE      39  30  70 NW9G22    30.66S VSB<1/4
COTTONWOOD PAS NOT AVBL
GUNNISON       MOSUNNY   64  48  55 NE3       30.37F
KREMMLING      CLOUDY    61  50  67 CALM      30.36S
LEADVILLE      PTSUNNY   59  43  55 VRB6      30.46S
MONARCH PASS   CLOUDY    50  45  81 SW9       30.72S
SALIDA         PTSUNNY   72  46  39 N6        30.38S
SUNLIGHT       MOSUNNY   54  48  82 NW5       30.58S
WILKERSON PASS CLOUDY    48  45  87 E5        30.60R FOG
$$

COZ069>075-061800-
...SAN LUIS VALLEY/SANGRE DE CRISTO MOUNTAINS...

CITY           SKY/WX    TMP DP  RH WIND       PRES   REMARKS
ALAMOSA        MOSUNNY   69  48  47 CALM      30.30S
LA VETA PASS   FOG       48  46  93 MISG      30.51R VSB<1/4
SAGUACHE       PTSUNNY   68  52  56 NW10      30.33S
$$

COZ035-036-038>040-061800-
...NORTHERN COLORADO FRONT RANGE...

CITY           SKY/WX    TMP DP  RH WIND       PRES   REMARKS
DENVER INTL AP CLOUDY    60  57  89 N9        30.28R
DMNS CITY PARK   N/A     60  58  93 N8G18     30.28R
AURORA         LGT RAIN  59  59 100 NE12      30.30R FOG
FRONT RANGE AP CLOUDY    61  59  94 N8        30.29R
ERIE MUNI ARPT CLOUDY    61  58  91 N8        30.28R
BOULDER MUN AP CLOUDY    61  59  94 N5        30.29R
CENTENNIAL     LGT RAIN  59  58  96 NE9       30.30R VSB 1
BROOMFIELD     CLOUDY    61  59  94 N8        30.31R FOG
FORT COLLINS   CLOUDY    61  57  88 NE5       30.29S
LONGMONT       CLOUDY    64  59  85 N5        30.30R
$$

COZ041-046-047-076>085-087-088-061800-
...PIKES PEAK/PALMER DIVIDE AND SOUTHERN FOOTHILLS...

CITY           SKY/WX    TMP DP  RH WIND       PRES   REMARKS
COLO. SPRINGS  PTSUNNY   70  55  59 N20       30.26S
A. F. ACADEMY  PTSUNNY   65  56  71 N15       30.29R
ELLICOTT       PTSUNNY  N/A N/A N/A N17G24    30.26R
FALCON         CLOUDY    64  55  71 N12G17    30.33R
FORT CARSON    MOSUNNY   71  56  58 N13       30.24R
LIMON          CLOUDY    60  57  89 N16G23    30.25R
MONUMENT HILL  CLOUDY    57  54  88 MISG      30.34R
TRINIDAD       LGT RAIN  65  60  84 NE6       30.26R
$$

COZ042>045-048>051-090-091-061800-
...NORTHEAST COLORADO...

CITY           SKY/WX    TMP DP  RH WIND       PRES   REMARKS
GREELEY ARPT   PTSUNNY   63  57  82 NE9       30.27R
AKRON          CLOUDY    61  56  83 N18       30.23R
BURLINGTON     CLOUDY    65  59  81 N21       30.17R
WRAY           CLOUDY    69  57  67 N17G23    30.17R
STERLING       CLOUDY    64  57  77 N14         N/A
HOLYOKE        PTSUNNY   68  55  64 N15G26    30.18S
FORT MORGAN    CLOUDY    63  54  74 N16       30.26R
$$

COZ086-089-092>099-061800-
...SOUTHEAST COLORADO...

CITY           SKY/WX    TMP DP  RH WIND       PRES   REMARKS
PUEBLO         PTSUNNY   81  57  43 NE15G23   30.17S
LA JUNTA       LGT RAIN  72  62  71 N17       30.16S
LAMAR          CLOUDY    71  60  68 N13G22    30.12R
SPRINGFIELD      N/A     71  61  70 N23       30.14R
$$



USA.gov is the U.S. government's official web portal to all federal, state and local government web resources and services.